Time,TemperatureF,DewpointF,PressureIn,WindDirection,WindDirectionDegrees,WindSpeedMPH,WindSpeedGustMPH,Humidity,HourlyPrecipIn,Conditions,Clouds,dailyrainin,SoftwareType,DateUTC
2013-02-19 00:13:00,32.8,22.0,30.25,WSW,239,14.0,21.0,64,0.00,,,0.00,weatherlink.com 1.10,2013-02-19 05:13:00,
2013-02-19 00:28:00,32.7,19.0,30.25,WSW,255,21.0,23.0,58,0.00,,,0.00,weatherlink.com 1.10,2013-02-19 05:28:00,
2013-02-19 00:43:00,32.7,20.0,30.25,SW,232,14.0,21.0,59,0.00,,,0.00,weatherlink.com 1.10,2013-02-19 05:43:00,
2013-02-19 00:58:00,32.9,21.0,30.25,WSW,246,15.0,22.0,62,0.00,,,0.00,weatherlink.com 1.10,2013-02-19 05:58:00,
2013-02-19 01:13:00,33.1,21.0,30.24,West,281,17.0,22.0,61,0.00,,,0.00,weatherlink.com 1.10,2013-02-19 06:13:00,
2013-02-19 01:28:00,33.0,23.0,30.24,WSW,257,13.0,23.0,67,0.00,,,0.00,weatherlink.com 1.10,2013-02-19 06:28:00,
2013-02-19 01:43:00,33.1,24.0,30.23,WSW,257,15.0,19.0,68,0.00,,,0.00,weatherlink.com 1.10,2013-02-19 06:43:00,
2013-02-19 01:58:00,33.5,24.0,30.23,WSW,250,18.0,19.0,68,0.00,,,0.00,weatherlink.com 1.10,2013-02-19 06:58:00,
2013-02-19 02:13:00,33.5,24.0,30.21,West,275,10.0,16.0,68,0.00,,,0.00,weatherlink.com 1.10,2013-02-19 07:13:00,
2013-02-19 02:29:00,33.1,23.0,30.20,West,269,7.0,10.0,66,0.00,,,0.00,weatherlink.com 1.10,2013-02-19 07:29:00,
2013-02-19 02:44:00,32.8,23.0,30.20,WSW,246,9.0,10.0,66,0.00,,,0.00,weatherlink.com 1.10,2013-02-19 07:44:00,
2013-02-19 02:59:00,32.5,22.0,30.20,SW,236,11.0,12.0,66,0.00,,,0.00,weatherlink.com 1.10,2013-02-19 07:59:00,
2013-02-19 03:14:00,32.5,21.0,30.20,WSW,254,14.0,17.0,63,0.00,,,0.00,weatherlink.com 1.10,2013-02-19 08:14:00,
2013-02-19 03:29:00,32.9,21.0,30.20,West,260,11.0,18.0,61,0.00,,,0.00,weatherlink.com 1.10,2013-02-19 08:29:00,
2013-02-19 03:44:00,33.1,21.0,30.20,WSW,245,11.0,16.0,61,0.00,,,0.00,weatherlink.com 1.10,2013-02-19 08:44:00,
2013-02-19 03:59:00,33.2,22.0,30.20,West,259,11.0,15.0,63,0.00,,,0.00,weatherlink.com 1.10,2013-02-19 08:59:00,
2013-02-19 04:14:00,33.2,23.0,30.19,SW,234,10.0,16.0,65,0.00,,,0.00,weatherlink.com 1.10,2013-02-19 09:14:00,
2013-02-19 04:29:00,33.2,23.0,30.20,SW,229,10.0,14.0,67,0.00,,,0.00,weatherlink.com 1.10,2013-02-19 09:29:00,
2013-02-19 04:44:00,33.3,24.0,30.20,WSW,238,10.0,13.0,70,0.00,,,0.00,weatherlink.com 1.10,2013-02-19 09:44:00,
2013-02-19 04:59:00,33.2,24.0,30.20,WSW,249,7.0,12.0,69,0.00,,,0.00,weatherlink.com 1.10,2013-02-19 09:59:00,
2013-02-19 05:14:00,32.9,24.0,30.19,WSW,245,4.0,9.0,71,0.00,,,0.00,weatherlink.com 1.10,2013-02-19 10:14:00,
2013-02-19 05:29:00,32.6,25.0,30.19,SSW,206,7.0,7.0,73,0.00,,,0.00,weatherlink.com 1.10,2013-02-19 10:29:00,
2013-02-19 05:44:00,32.8,26.0,30.18,SSW,211,5.0,8.0,76,0.00,,,0.00,weatherlink.com 1.10,2013-02-19 10:44:00,
2013-02-19 05:59:00,33.1,26.0,30.18,SW,216,4.0,8.0,76,0.00,,,0.00,weatherlink.com 1.10,2013-02-19 10:59:00,
2013-02-19 06:14:00,33.6,27.0,30.17,South,188,7.0,8.0,76,0.00,,,0.00,weatherlink.com 1.10,2013-02-19 11:14:00,
2013-02-19 06:29:00,33.7,27.0,30.16,South,171,4.0,7.0,75,0.00,,,0.00,weatherlink.com 1.10,2013-02-19 11:29:00,
2013-02-19 06:44:00,33.8,27.0,30.16,SSE,151,3.0,7.0,76,0.00,,,0.00,weatherlink.com 1.10,2013-02-19 11:44:00,
2013-02-19 06:59:00,33.8,28.0,30.15,SE,137,4.0,7.0,78,0.00,,,0.00,weatherlink.com 1.10,2013-02-19 11:59:00,
2013-02-19 07:14:00,34.3,29.0,30.15,SE,137,5.0,7.0,80,0.00,,,0.00,weatherlink.com 1.10,2013-02-19 12:14:00,
2013-02-19 07:29:00,35.8,31.0,30.15,SE,137,3.0,8.0,81,0.00,,,0.00,weatherlink.com 1.10,2013-02-19 12:29:00,
2013-02-19 07:44:00,37.5,32.0,30.15,SE,137,3.0,6.0,80,0.00,,,0.00,weatherlink.com 1.10,2013-02-19 12:44:00,
2013-02-19 07:59:00,38.3,33.0,30.15,SSE,165,4.0,9.0,80,0.00,,,0.00,weatherlink.com 1.10,2013-02-19 12:59:00,
2013-02-19 08:14:00,39.0,34.0,30.14,SSE,154,6.0,11.0,81,0.00,,,0.00,weatherlink.com 1.10,2013-02-19 13:14:00,
2013-02-19 08:29:00,39.5,34.0,30.14,South,172,8.0,9.0,81,0.00,,,0.00,weatherlink.com 1.10,2013-02-19 13:29:00,
2013-02-19 08:44:00,40.4,35.0,30.13,SSW,196,9.0,10.0,81,0.00,,,0.00,weatherlink.com 1.10,2013-02-19 13:44:00,
2013-02-19 08:59:00,41.3,36.0,30.13,SSW,201,9.0,14.0,80,0.00,,,0.00,weatherlink.com 1.10,2013-02-19 13:59:00,
2013-02-19 09:14:00,42.2,36.0,30.12,South,179,10.0,16.0,78,0.00,,,0.00,weatherlink.com 1.10,2013-02-19 14:14:00,
2013-02-19 09:29:00,43.1,36.0,30.12,SSW,197,14.0,16.0,76,0.00,,,0.00,weatherlink.com 1.10,2013-02-19 14:29:00,
2013-02-19 09:44:00,43.2,36.0,30.11,South,186,11.0,14.0,75,0.00,,,0.00,weatherlink.com 1.10,2013-02-19 14:44:00,
2013-02-19 09:59:00,43.5,36.0,30.11,SW,223,9.0,18.0,74,0.00,,,0.00,weatherlink.com 1.10,2013-02-19 14:59:00,
2013-02-19 10:15:00,44.3,36.0,30.11,SSW,194,8.0,17.0,73,0.00,,,0.00,weatherlink.com 1.10,2013-02-19 15:15:00,
2013-02-19 10:30:00,44.6,36.0,30.10,SSW,213,14.0,18.0,73,0.00,,,0.00,weatherlink.com 1.10,2013-02-19 15:30:00,
2013-02-19 10:45:00,44.6,36.0,30.10,SSW,209,14.0,19.0,73,0.00,,,0.00,weatherlink.com 1.10,2013-02-19 15:45:00,
2013-02-19 11:00:00,44.7,37.0,30.09,South,185,12.0,16.0,73,0.00,,,0.00,weatherlink.com 1.10,2013-02-19 16:00:00,
2013-02-19 11:15:00,45.1,36.0,30.08,South,178,10.0,17.0,71,0.00,,,0.00,weatherlink.com 1.10,2013-02-19 16:15:00,
2013-02-19 11:30:00,44.3,37.0,30.07,South,186,7.0,14.0,74,0.00,,,0.00,weatherlink.com 1.10,2013-02-19 16:30:00,
2013-02-19 11:45:00,44.4,37.0,30.06,South,171,12.0,16.0,75,0.00,,,0.00,weatherlink.com 1.10,2013-02-19 16:45:00,
2013-02-19 12:00:00,44.4,37.0,30.05,SSE,159,10.0,16.0,76,0.00,,,0.00,weatherlink.com 1.10,2013-02-19 17:00:00,
2013-02-19 12:15:00,45.1,38.0,30.04,SSW,200,11.0,21.0,77,0.00,,,0.00,weatherlink.com 1.10,2013-02-19 17:15:00,
2013-02-19 12:30:00,44.3,38.0,30.03,South,179,16.0,20.0,77,0.00,,,0.00,weatherlink.com 1.10,2013-02-19 17:30:00,
2013-02-19 12:45:00,43.9,37.0,30.02,South,186,14.0,16.0,78,0.00,,,0.00,weatherlink.com 1.10,2013-02-19 17:45:00,
2013-02-19 13:00:00,44.1,38.0,30.02,SSW,192,8.0,15.0,78,0.00,,,0.00,weatherlink.com 1.10,2013-02-19 18:00:00,
2013-02-19 13:15:00,45.3,39.0,30.00,South,170,7.0,16.0,77,0.00,,,0.00,weatherlink.com 1.10,2013-02-19 18:15:00,
2013-02-19 13:30:00,44.5,38.0,29.99,South,175,13.0,17.0,78,0.00,,,0.00,weatherlink.com 1.10,2013-02-19 18:30:00,
2013-02-19 13:45:00,43.3,38.0,29.98,South,186,8.0,19.0,82,0.00,,,0.00,weatherlink.com 1.10,2013-02-19 18:45:00,
2013-02-19 14:00:00,43.9,39.0,29.96,SSE,153,12.0,16.0,82,0.00,,,0.00,weatherlink.com 1.10,2013-02-19 19:00:00,
2013-02-19 14:15:00,43.4,39.0,29.95,South,170,5.0,15.0,84,0.00,,,0.00,weatherlink.com 1.10,2013-02-19 19:15:00,
2013-02-19 14:30:00,43.1,39.0,29.95,SSE,155,8.0,16.0,84,0.00,,,0.00,weatherlink.com 1.10,2013-02-19 19:30:00,
2013-02-19 14:45:00,43.0,39.0,29.95,SSW,197,13.0,17.0,85,0.00,,,0.00,weatherlink.com 1.10,2013-02-19 19:45:00,
2013-02-19 15:00:00,44.0,40.0,29.93,South,180,13.0,22.0,86,0.00,,,0.00,weatherlink.com 1.10,2013-02-19 20:00:00,
2013-02-19 15:15:00,43.4,40.0,29.93,South,188,17.0,21.0,87,0.00,,,0.00,weatherlink.com 1.10,2013-02-19 20:15:00,
2013-02-19 15:30:00,43.4,40.0,29.92,SSW,204,9.0,19.0,88,0.01,,,0.01,weatherlink.com 1.10,2013-02-19 20:30:00,
2013-02-19 15:45:00,43.5,40.0,29.90,South,180,13.0,20.0,88,0.01,,,0.01,weatherlink.com 1.10,2013-02-19 20:45:00,
2013-02-19 16:00:00,43.4,40.0,29.88,South,169,16.0,20.0,89,0.02,,,0.02,weatherlink.com 1.10,2013-02-19 21:00:00,
2013-02-19 16:15:00,42.8,40.0,29.87,SSE,162,10.0,17.0,90,0.02,,,0.02,weatherlink.com 1.10,2013-02-19 21:15:00,
2013-02-19 16:31:00,42.4,40.0,29.85,South,176,13.0,17.0,91,0.02,,,0.03,weatherlink.com 1.10,2013-02-19 21:31:00,
2013-02-19 16:46:00,41.9,40.0,29.84,SSE,155,8.0,17.0,92,0.03,,,0.04,weatherlink.com 1.10,2013-02-19 21:46:00,
2013-02-19 17:01:00,42.3,41.0,29.82,SSW,208,6.0,16.0,93,0.04,,,0.06,weatherlink.com 1.10,2013-02-19 22:01:00,
2013-02-19 17:16:00,42.8,41.0,29.82,SE,146,10.0,17.0,93,0.05,,,0.07,weatherlink.com 1.10,2013-02-19 22:16:00,
2013-02-19 17:31:00,42.9,41.0,29.81,SE,141,11.0,14.0,93,0.06,,,0.09,weatherlink.com 1.10,2013-02-19 22:31:00,
2013-02-19 17:46:00,42.0,40.0,29.81,WSW,254,7.0,11.0,93,0.10,,,0.14,weatherlink.com 1.10,2013-02-19 22:46:00,
2013-02-19 18:01:00,42.6,41.0,29.80,SW,222,8.0,9.0,94,0.12,,,0.18,weatherlink.com 1.10,2013-02-19 23:01:00,
2013-02-19 18:16:00,43.0,41.0,29.80,South,171,6.0,9.0,94,0.13,,,0.20,weatherlink.com 1.10,2013-02-19 23:16:00,
2013-02-19 18:31:00,43.5,42.0,29.78,SE,146,9.0,13.0,94,0.13,,,0.22,weatherlink.com 1.10,2013-02-19 23:31:00,
2013-02-19 18:46:00,43.5,42.0,29.77,SE,142,8.0,15.0,94,0.08,,,0.22,weatherlink.com 1.10,2013-02-19 23:46:00,
2013-02-19 19:01:00,43.6,42.0,29.76,SSE,153,13.0,15.0,94,0.06,,,0.24,weatherlink.com 1.10,2013-02-20 00:01:00,
2013-02-19 19:16:00,43.3,42.0,29.74,SE,146,8.0,16.0,94,0.05,,,0.25,weatherlink.com 1.10,2013-02-20 00:16:00,
2013-02-19 19:31:00,43.0,41.0,29.73,SSE,153,6.0,14.0,94,0.04,,,0.26,weatherlink.com 1.10,2013-02-20 00:31:00,
2013-02-19 19:46:00,42.8,42.0,29.71,SSE,150,12.0,16.0,95,0.04,,,0.27,weatherlink.com 1.10,2013-02-20 00:46:00,
2013-02-19 20:01:00,44.1,43.0,29.71,SSW,196,10.0,21.0,95,0.04,,,0.28,weatherlink.com 1.10,2013-02-20 01:01:00,
2013-02-19 20:16:00,43.7,42.0,29.69,SW,235,12.0,16.0,95,0.04,,,0.29,weatherlink.com 1.10,2013-02-20 01:16:00,
2013-02-19 20:31:00,43.4,42.0,29.70,West,265,15.0,20.0,95,0.04,,,0.30,weatherlink.com 1.10,2013-02-20 01:31:00,
2013-02-19 20:46:00,43.1,42.0,29.70,West,273,10.0,18.0,95,0.04,,,0.31,weatherlink.com 1.10,2013-02-20 01:46:00,
2013-02-19 21:01:00,42.0,41.0,29.68,West,262,13.0,16.0,95,0.04,,,0.32,weatherlink.com 1.10,2013-02-20 02:01:00,
2013-02-19 21:16:00,41.3,40.0,29.68,WSW,257,12.0,15.0,95,0.04,,,0.33,weatherlink.com 1.10,2013-02-20 02:16:00,
2013-02-19 21:31:00,40.8,40.0,29.68,West,271,10.0,14.0,95,0.03,,,0.33,weatherlink.com 1.10,2013-02-20 02:31:00,
2013-02-19 21:46:00,40.5,39.0,29.66,West,265,7.0,11.0,95,0.02,,,0.33,weatherlink.com 1.10,2013-02-20 02:46:00,
2013-02-19 22:01:00,40.1,39.0,29.67,West,263,9.0,11.0,95,0.01,,,0.33,weatherlink.com 1.10,2013-02-20 03:01:00,
2013-02-19 22:16:00,39.5,38.0,29.67,West,265,7.0,11.0,95,0.00,,,0.33,weatherlink.com 1.10,2013-02-20 03:16:00,
2013-02-19 22:31:00,39.6,38.0,29.66,West,261,12.0,12.0,95,0.00,,,0.33,weatherlink.com 1.10,2013-02-20 03:31:00,
2013-02-19 22:46:00,39.6,38.0,29.67,WSW,255,12.0,12.0,95,0.00,,,0.33,weatherlink.com 1.10,2013-02-20 03:46:00,
2013-02-19 23:01:00,40.0,39.0,29.66,West,261,12.0,16.0,95,0.00,,,0.33,weatherlink.com 1.10,2013-02-20 04:01:00,
2013-02-19 23:16:00,39.8,39.0,29.65,WSW,257,9.0,13.0,95,0.00,,,0.33,weatherlink.com 1.10,2013-02-20 04:16:00,
2013-02-19 23:31:00,39.2,38.0,29.65,West,264,11.0,14.0,95,0.00,,,0.33,weatherlink.com 1.10,2013-02-20 04:31:00,
2013-02-19 23:46:00,38.9,38.0,29.66,West,265,13.0,18.0,95,0.00,,,0.33,weatherlink.com 1.10,2013-02-20 04:46:00,